Location: downtown San Diego
(32.7310°N, 117.1990°W)
Time: 10:33:14
(UTC-07:00)

Atlas Centaur 2 - Pass Details

Date: 12 July 2018
Orbit: 459 x 1312 km, 30.4° (Epoch: 21 September)

Event Time Altitude Azimuth Distance (km) Brightness Sun altitude
Rises 22:43:17 0° 265° (W) 3,979 6.1 -27.1°
Reaches altitude 10° 22:46:21 10° 263° (W) 2,897 5.3 -27.4°
Enters shadow 22:52:41 66° 225° (SW) 992 2.4 -28.2°
